Accra, Ghana

8:51 AM GMT on November 23, 2014 (GMT +0000)
Kotoka International | Change Station
CLOSE
Current Station
Airport
Location: Accra,
Elevation: 226 ft
Nearby Weather Stations

Elev 226 ft 5.61 °N, 0.17 °W | Updated 1 hour ago

Clear
Clear
81 °F
Feels Like 87 °F
N
9
Wind Variable Wind from West

Today
High -- | Low -- °F
--% Chance of Precip.
Yesterday
High -- | Low -- °F
Precip. -- in
5:51 AM 5:42 PM
New Moon, 1% visible
Pressure 29.92 in
Visibility -9999.0 miles
Clouds
Heat Index 87 °F
Dew Point 77 °F
Humidity 89%
Rainfall 0.00 in
Snow Depth Not available.
UV Not available.
Pollen Not available.
Air Quality Not available.
Flu Activity Not available.
METAR DGAA 230749Z 27008KT CAVOK 27/25 Q1013 NOSIG

More Conditions Fewer Conditions

Pressure 29.92 in
Visibility -9999.0 miles
Clouds
Heat Index 87 °F
Dew Point 77 °F
Humidity 89%
Rainfall 0.00 in
Snow Depth Not available.
UV Not available.
Pollen Not available.
Air Quality Not available.
Flu Activity Not available.
METAR DGAA 230749Z 27008KT CAVOK 27/25 Q1013 NOSIG

More Conditions Fewer Conditions

10-Day Weather Forecast

Almanac

Astronomy

Nov. 23, 2014 Rise Set
Actual Time
Civil Twilight
Nautical Twilight
Astronomical Twilight
Moon
Length of Visible Light
Length of Day
Tomorrow will be .
, % of the Moon is Illuminated

Today's Extremes

Country Highs Country Lows

Community

WunderPhotos

Upload Photos

1,773,024 photos uploaded!

WunderBlogs® & News

Nearby

Air Quality

  Air Quality AQ Index Pollutant
Not available.

Snow Depth

Station Depth Elevation

Earthquake Activity

City Distance Mag. Time & Date
Minimum magnitude displayed is 2.5.

Coastal Water Temperatures

Place Temperature

Nearby Weather Stations